Weather History for Mandan, ND

Change the Weather History Date:

Sunday, May 4, 2014

  Actual Average (KBIS) Record (KBIS)
Temperature  
Mean Temperature 37 °F 52 °F  
Max Temperature 42 °F 65 °F 94 °F (1926)
Min Temperature 32 °F 38 °F 20 °F (1954)
Degree Days  
Heating Degree Days 28 14  
Month to date heating degree days 57  
Since 1 July heating degree days 8212  
Cooling Degree Days 0 0  
Month to date cooling degree days 0  
Year to date cooling degree days 1  
Moisture  
Dew Point 26 °F    
Average Humidity 67    
Maximum Humidity 87    
Minimum Humidity 49    
Precipitation  
Precipitation 0.03 in 0.07 in 1.33 in (1914)
Month to date precipitation 0.26  
Year to date precipitation 3.33  
Snow  
Snow 0.00 in 0.00 in 4.90 in (1950)
Month to date snowfall 0.1  
Since 1 July snowfall 50.9  
Snow Depth -    
Sea Level Pressure  
Sea Level Pressure 30.03 in    
Wind  
Wind Speed 8 mph (ESE)    
Max Wind Speed 20 mph    
Max Gust Speed 31 mph    
Visibility 10 miles    
Events Snow    
T = Trace of Precipitation, MM = Missing Value Source: NWS Daily Summary

Daily Weather History Graph

Daily Weather History Graph

Search for Another Location

Airport:

Trip Planner

Search our weather history database for the weather conditions in past years. The results will help you decide how hot, cold, wet, or windy it might be!

Date:

Astronomy

May. 04, 2014 Rise Set
Actual Time 6:23 AM CDT 8:57 PM CDT
Civil Twilight 5:49 AM CDT 9:31 PM CDT
Nautical Twilight 5:06 AM CDT 10:15 PM CDT
Astronomical Twilight 4:17 AM CDT 11:05 PM CDT
Moon 10:48 AM CDT (5/4) 1:05 AM CDT (5/4)
Length of Visible Light 15h 42m
Length of Day
14h 33m
Waxing Crescent, 28% of the Moon is Illuminated
May 4
Waxing Crescent
May 6
First Quarter
May 14
Full
May 21
Last Quarter
May 28
New

Hourly Weather History & Observations

Time (CDT) Temp. Windchill Dew Point Humidity Pressure Visibility Wind Dir Wind Speed Gust Speed Precip Events Conditions
12:15 AM 33.8 °F 27.7 °F 23.0 °F 65% 30.08 in 10.0 mi East 6.9 mph - N/A   Scattered Clouds
12:35 AM 33.8 °F 27.7 °F 23.0 °F 65% 30.08 in 10.0 mi East 6.9 mph - N/A   Scattered Clouds
12:55 AM 32.0 °F 27.5 °F 23.0 °F 69% 30.10 in 10.0 mi East 4.6 mph - N/A   Scattered Clouds
1:15 AM 33.8 °F 30.8 °F 23.0 °F 65% 30.11 in 10.0 mi East 3.5 mph - N/A   Mostly Cloudy
1:35 AM 32.0 °F 28.7 °F 23.0 °F 69% 30.10 in 10.0 mi East 3.5 mph - N/A   Overcast
1:55 AM 32.0 °F 26.4 °F 23.0 °F 69% 30.08 in 10.0 mi East 5.8 mph - N/A   Mostly Cloudy
2:15 AM 32.0 °F 27.5 °F 24.8 °F 75% 30.07 in 10.0 mi East 4.6 mph - N/A   Overcast
2:35 AM 32.0 °F 25.6 °F 23.0 °F 69% 30.06 in 10.0 mi East 6.9 mph - N/A   Overcast
2:55 AM 32.0 °F 27.5 °F 24.8 °F 75% 30.06 in 10.0 mi East 4.6 mph - N/A   Overcast
3:15 AM 32.0 °F 28.7 °F 24.8 °F 75% 30.06 in 10.0 mi ENE 3.5 mph - N/A   Overcast
3:35 AM 32.0 °F 26.4 °F 24.8 °F 75% 30.06 in 10.0 mi NE 5.8 mph - N/A   Overcast
3:55 AM 32.0 °F 27.5 °F 24.8 °F 75% 30.06 in 10.0 mi ENE 4.6 mph - N/A   Overcast
4:15 AM 32.0 °F 28.7 °F 24.8 °F 75% 30.06 in 10.0 mi East 3.5 mph - N/A   Overcast
4:35 AM 32.0 °F 27.5 °F 24.8 °F 75% 30.07 in 10.0 mi ESE 4.6 mph - N/A   Scattered Clouds
4:55 AM 32.0 °F 27.5 °F 24.8 °F 75% 30.07 in 10.0 mi SSE 4.6 mph - N/A   Mostly Cloudy
5:15 AM 32.0 °F 27.5 °F 24.8 °F 75% 30.07 in 10.0 mi South 4.6 mph - N/A   Mostly Cloudy
5:35 AM 32.0 °F - 24.8 °F 75% 30.07 in 10.0 mi Calm Calm - N/A   Overcast
5:55 AM 32.0 °F - 24.8 °F 75% 30.08 in 10.0 mi Calm Calm - N/A   Overcast
6:15 AM 32.0 °F - 24.8 °F 75% 30.08 in 10.0 mi Calm Calm - N/A   Overcast
6:35 AM 33.8 °F 29.6 °F 24.8 °F 70% 30.09 in 10.0 mi South 4.6 mph - N/A   Overcast
6:55 AM 32.0 °F 23.6 °F 28.4 °F 87% 30.09 in 10.0 mi South 10.4 mph - N/A   Overcast
7:15 AM 32.0 °F 24.2 °F 28.4 °F 87% 30.09 in 10.0 mi South 9.2 mph - N/A   Overcast
7:35 AM 32.0 °F 23.6 °F 28.4 °F 87% 30.10 in 4.0 mi South 10.4 mph - N/A   Overcast
7:55 AM 32.0 °F 25.6 °F 28.4 °F 87% 30.10 in 8.0 mi SE 6.9 mph - N/A Snow Light Snow
8:15 AM 32.0 °F 24.8 °F 28.4 °F 87% 30.10 in 6.0 mi SE 8.1 mph - N/A Snow Light Snow
8:35 AM 32.0 °F 24.8 °F 28.4 °F 87% 30.09 in 10.0 mi ESE 8.1 mph - N/A   Overcast
8:55 AM 32.0 °F 26.4 °F 28.4 °F 87% 30.09 in 10.0 mi East 5.8 mph - N/A   Overcast
9:15 AM 32.0 °F 25.6 °F 28.4 °F 87% 30.09 in 10.0 mi ESE 6.9 mph - N/A   Mostly Cloudy
9:35 AM 33.8 °F 27.7 °F 30.2 °F 87% 30.08 in 10.0 mi East 6.9 mph - 0.03 in Snow Light Snow
9:55 AM 35.6 °F 28.6 °F 30.2 °F 81% 30.07 in 10.0 mi ESE 9.2 mph - 0.03 in   Overcast
10:15 AM 35.6 °F 29.2 °F 30.2 °F 81% 30.07 in 10.0 mi ESE 8.1 mph - N/A   Overcast
10:35 AM 35.6 °F 29.2 °F 30.2 °F 81% 30.07 in 10.0 mi ESE 8.1 mph - N/A   Overcast
10:55 AM 37.4 °F 30.3 °F 30.2 °F 75% 30.07 in 10.0 mi ESE 10.4 mph - N/A   Overcast
11:15 AM 37.4 °F 30.3 °F 28.4 °F 70% 30.06 in 10.0 mi SE 10.4 mph - N/A   Overcast
11:35 AM 37.4 °F 28.9 °F 28.4 °F 70% 30.06 in 10.0 mi SE 13.8 mph - N/A   Overcast
11:55 AM 39.2 °F 30.8 °F 28.4 °F 65% 30.05 in 10.0 mi SE 15.0 mph - N/A   Overcast
12:15 PM 39.2 °F 30.2 °F 26.6 °F 61% 30.05 in 10.0 mi SSE 17.3 mph - N/A   Overcast
12:35 PM 39.2 °F 30.5 °F 26.6 °F 61% 30.04 in 10.0 mi SE 16.1 mph 21.9 mph N/A   Overcast
12:55 PM 39.2 °F 30.5 °F 26.6 °F 61% 30.03 in 10.0 mi SE 16.1 mph - N/A   Overcast
1:15 PM 39.2 °F 30.8 °F 26.6 °F 61% 30.02 in 10.0 mi SE 15.0 mph - N/A   Overcast
1:35 PM 39.2 °F 30.2 °F 26.6 °F 61% 30.01 in 10.0 mi SSE 17.3 mph - N/A   Overcast
1:55 PM 39.2 °F 30.8 °F 26.6 °F 61% 30.01 in 10.0 mi SE 15.0 mph 21.9 mph N/A   Overcast
2:15 PM 41.0 °F 32.8 °F 26.6 °F 57% 30.00 in 10.0 mi SE 16.1 mph - N/A   Overcast
2:35 PM 41.0 °F 33.5 °F 26.6 °F 57% 30.00 in 10.0 mi SE 13.8 mph 18.4 mph N/A   Overcast
2:55 PM 41.0 °F 32.2 °F 24.8 °F 53% 30.00 in 10.0 mi SE 18.4 mph 21.9 mph N/A   Overcast
3:15 PM 41.0 °F 32.2 °F 24.8 °F 53% 29.99 in 10.0 mi ESE 18.4 mph 21.9 mph N/A   Overcast
3:35 PM 41.0 °F 32.5 °F 24.8 °F 53% 29.98 in 10.0 mi SE 17.3 mph - N/A   Overcast
3:55 PM 41.0 °F 31.9 °F 24.8 °F 53% 29.97 in 10.0 mi SE 19.6 mph - N/A   Overcast
4:15 PM 41.0 °F 32.2 °F 24.8 °F 53% 29.96 in 10.0 mi SE 18.4 mph - N/A   Overcast
4:35 PM 41.0 °F 32.5 °F 24.8 °F 53% 29.96 in 10.0 mi SE 17.3 mph 23.0 mph N/A   Overcast
4:55 PM 41.0 °F 31.9 °F 24.8 °F 53% 29.96 in 10.0 mi SE 19.6 mph - N/A   Overcast
5:15 PM 41.0 °F 32.2 °F 24.8 °F 53% 29.95 in 10.0 mi SE 18.4 mph 23.0 mph N/A   Overcast
5:35 PM 41.0 °F 32.2 °F 24.8 °F 53% 29.95 in 10.0 mi SE 18.4 mph 21.9 mph N/A   Overcast
5:55 PM 42.8 °F 34.5 °F 24.8 °F 49% 29.94 in 10.0 mi SE 18.4 mph 24.2 mph N/A   Overcast
6:15 PM 41.0 °F 32.8 °F 24.8 °F 53% 29.91 in 10.0 mi SE 16.1 mph 31.1 mph N/A   Scattered Clouds
6:35 PM 41.0 °F 34.7 °F 24.8 °F 53% 29.98 in 10.0 mi SSE 10.4 mph - N/A   Scattered Clouds
6:55 PM 41.0 °F 34.7 °F 24.8 °F 53% 29.98 in 10.0 mi SE 10.4 mph 17.3 mph N/A   Overcast
7:15 PM 41.0 °F 35.2 °F 26.6 °F 57% 29.98 in 10.0 mi ESE 9.2 mph - N/A   Overcast
7:35 PM 41.0 °F 35.2 °F 26.6 °F 57% 29.96 in 10.0 mi SE 9.2 mph - N/A   Overcast
7:55 PM 41.0 °F 34.3 °F 26.6 °F 57% 29.97 in 10.0 mi ESE 11.5 mph - N/A   Overcast
8:15 PM 41.0 °F 33.9 °F 26.6 °F 57% 29.97 in 10.0 mi ESE 12.7 mph - N/A   Overcast
8:35 PM 41.0 °F 34.3 °F 26.6 °F 57% 29.97 in 10.0 mi ESE 11.5 mph - N/A   Overcast
8:55 PM 41.0 °F 34.3 °F 26.6 °F 57% 29.97 in 10.0 mi ESE 11.5 mph - N/A   Overcast
9:15 PM 41.0 °F 34.7 °F 26.6 °F 57% 29.97 in 10.0 mi East 10.4 mph - N/A   Overcast
9:35 PM 39.2 °F 31.6 °F 26.6 °F 61% 29.97 in 10.0 mi ESE 12.7 mph - N/A   Overcast
9:55 PM 39.2 °F 33.0 °F 26.6 °F 61% 29.98 in 10.0 mi ESE 9.2 mph - N/A   Overcast
10:15 PM 39.2 °F 32.0 °F 24.8 °F 56% 29.98 in 10.0 mi ESE 11.5 mph - N/A   Overcast
10:35 PM 39.2 °F 32.5 °F 26.6 °F 61% 29.98 in 10.0 mi ESE 10.4 mph - N/A   Overcast
10:55 PM 39.2 °F 33.6 °F 26.6 °F 61% 29.99 in 10.0 mi East 8.1 mph - N/A   Overcast
11:15 PM 39.2 °F 33.6 °F 26.6 °F 61% 29.99 in 10.0 mi East 8.1 mph - N/A   Overcast
11:35 PM 39.2 °F 33.6 °F 26.6 °F 61% 29.98 in 10.0 mi East 8.1 mph - N/A   Overcast
11:55 PM 39.2 °F 33.6 °F 26.6 °F 61% 29.98 in 10.0 mi East 8.1 mph - N/A   Overcast